#timestamp,LO_Frequency,Hit,StdDev 
1512972015.6,286047008.4,N
1512972035.4,286047013.9,N
1512972055.3,286047011.2,N
1512972075.1,286047019.1,Y
1512972095.8,286047014.3,P
1512972115.7,286047015.6,P
1512972135.5,286047009.3,P
1512972155.3,286047006.8,N
1512972175.2,286047006.8,N
1512972195.9,286047007.0,N
1512972215.7,286047003.9,N
1512972235.6,286046997.2,N
1512972255.4,286046995.5,N
1512972275.2,286046997.6,N
1512972295.1,286046994.2,N
1512972296.0,286046994.2,N
1512972315.8,286046994.6,N
1512972335.6,286046998.0,N
1512972355.4,286046999.7,N
1512972375.3,286047006.9,N
1512972395.1,286047005.8,N
1512972415.8,286046999.7,N
1512972435.7,286046998.9,N
1512972455.5,286046998.8,N
1512972475.3,286046998.4,N
1512972495.2,286046993.7,N
1512972515.9,286046994.1,N
1512972535.7,286046996.8,N
1512972555.6,286046995.3,N
1512972575.4,286046997.0,N
1512972595.2,286046995.4,N
1512972615.0,286046997.9,N
1512972616.0,286046997.9,N
1512972635.8,286046994.9,N
1512972655.6,286046998.1,N
1512972675.4,286047001.1,N
1512972695.3,286047000.4,N
1512972715.1,286047002.7,N
1512972735.8,286047002.5,N
1512972755.7,286047002.6,N
1512972775.5,286047003.3,N
1512972795.3,286047001.7,N
1512972815.2,286047001.3,N
1512972835.9,286047006.8,N
1512972855.7,286047007.5,N
1512972875.6,286047007.4,N
1512972895.4,286047004.7,N
1512972915.2,286047004.9,N
1512972935.0,286047003.9,N
1512972936.0,286047003.9,N
1512972955.8,286047004.2,N
1512972975.6,286047003.8,N
1512972995.4,286047001.8,N
1512973015.3,286047002.0,N
1512973035.1,286047001.8,N
1512973055.8,286047004.4,N
1512973075.7,286046998.9,N
1512973095.5,286046997.7,N
1512973115.3,286046995.5,N
1512973135.2,286046995.9,N
1512973155.9,286046996.0,N
1512973175.7,286046999.9,N
1512973195.6,286046997.2,N
1512973215.4,286046995.8,N
1512973235.2,286046997.3,N
1512973255.1,286047000.7,N
1512973256.0,286047000.7,N
1512973275.8,286046997.0,N
1512973295.6,286046997.6,N
1512973315.5,286046994.1,N
1512973335.3,286046993.4,N
1512973355.1,286046993.9,N
1512973375.8,286046991.9,N
1512973395.7,286046988.7,N
1512973415.5,286046987.5,N
1512973435.3,286046986.3,N
1512973455.2,286046991.6,N
1512973475.9,286046990.3,N
1512973495.7,286046991.9,N
1512973515.6,286046993.1,N
1512973535.4,286046993.7,N
1512973555.2,286046997.8,N
1512973575.1,286046993.7,N
1512973576.0,286046993.7,N
1512973595.8,286046996.2,N
1512973615.6,286046999.0,N
1512973635.5,286046994.9,N
1512973655.3,286046996.4,N
1512973675.1,286046995.4,N
1512973695.9,286046995.2,N
1512973715.7,286046999.3,N
1512973735.5,286046996.9,N
1512973755.3,286046999.0,N
1512973775.2,286047002.2,N
1512973795.0,286046999.7,N
1512973795.9,286046999.7,N
1512973815.7,286047002.6,N
1512973835.6,286047001.7,N
1512973855.4,286047003.6,N
1512973875.2,286047004.2,N
1512973895.1,286047006.0,N
1512973896.0,286047006.0,N
1512973915.8,286047010.5,N
1512973935.6,286047009.9,N
1512973955.5,286047011.8,N
1512973975.3,286047009.3,N
1512973995.1,286047009.6,N
1512974015.9,286047012.2,N
1512974035.7,286047010.0,N
1512974055.5,286047010.3,N
1512974075.3,286047008.1,N
1512974095.2,286047007.6,N
1512974115.0,286047006.7,N
1512974115.9,286047006.7,N
1512974135.7,286047007.6,N
1512974155.6,286047005.4,N
1512974175.4,286047008.6,N
1512974195.2,286047012.4,N
1512974215.1,286047011.4,N
1512974216.0,286047011.4,N
1512974235.8,286047012.7,N
1512974255.6,286047014.7,Y
1512974275.5,286047008.8,P
1512974295.3,286047004.6,P
1512974315.1,286047008.8,P
1512974335.9,286047008.4,Y
1512974355.7,286046999.9,P
1512974375.5,286047000.3,N
1512974395.4,286047002.2,N
1512974415.2,286047001.1,N
1512974435.0,286047002.7,N
1512974435.9,286047002.7,N
1512974455.8,286047005.7,N
1512974475.6,286047005.4,N
1512974495.4,286047006.1,N
1512974515.3,286047006.3,N
1512974535.1,286047006.9,N
1512974536.0,286047006.9,N
1512974555.8,286047003.2,N
1512974575.6,286046999.8,N
1512974595.5,286047002.5,N
1512974615.3,286047003.1,N
1512974635.1,286047001.6,N
1512974655.9,286047005.4,N
1512974675.7,286047005.6,N
1512974695.5,286047005.4,N
1512974715.4,286047004.0,N
1512974735.2,286047004.0,N
1512974755.0,286047005.9,N
1512974755.9,286047005.9,N
1512974775.8,286047004.0,N
1512974795.6,286047003.0,N
1512974815.4,286047002.9,N
1512974835.3,286047005.1,N
1512974855.1,286047009.0,Y
1512974856.0,286047009.0,P
1512974875.8,286047002.0,N
1512974895.7,286046998.4,N
1512974915.5,286046998.2,N
1512974935.3,286047001.9,N
1512974955.2,286047005.3,N
1512974975.9,286047006.2,N
1512974995.7,286047008.1,N
1512975015.5,286047007.4,N
1512975035.4,286047004.9,N
1512975055.2,286047005.3,N
1512975075.0,286047006.0,N
1512975075.9,286047006.0,N
1512975095.8,286047003.5,N
1512975115.6,286047003.4,N
1512975135.4,286047007.3,N
1512975155.3,286047003.4,N
1512975175.1,286047003.3,N
1512975176.0,286047003.3,N
1512975195.8,286047006.2,N
1512975215.7,286047007.2,N
1512975235.5,286047006.6,N
1512975255.3,286047007.2,N
1512975275.1,286047003.6,N
1512975295.9,286047002.0,N
1512975315.7,286047002.5,N
1512975335.5,286047002.5,N
1512975355.4,286047002.2,N
1512975375.2,286047000.1,N
1512975395.0,286046996.8,N
1512975395.9,286046996.8,N
1512975415.8,286046997.2,N
1512975435.6,286046998.8,N
1512975455.4,286046998.5,N
1512975475.3,286046999.5,N
1512975495.1,286046996.6,N
1512975496.0,286046996.6,N
1512975515.8,286046996.5,N
1512975535.7,286046998.4,N
1512975555.5,286047001.8,N
1512975575.3,286047001.5,N
1512975595.1,286047005.8,N
